CAPE
1157 1353 1544 1464 1295 1077 990 866 1326 1263 1338 1374 1228 1303 1253 1410 1339 1264 1207 1116 1210 1188 1161 1240 1268 1146 1132 1202 1348 1257 1085 1038 742 695 823 663 776 936 919 794 1038 1047 836 770 1281 1246 1192 1179 1276 1320 1367 1208 1076 1005 1002 877 846 879 1354 1250 1105 948 720 672 547 479 554 684 809 868 852 611 462 354 252 199 88 25 29 14 36 1 13 40 71
724 1196 1563 1656 1342 1186 1019 962 1468 1310 1291 1424 1307 1309 1408 1416 1324 1236 1254 1250 1211 1224 1218 1251 1271 1278 1245 1267 1197 1017 835 840 753 771 668 750 1022 644 658 696 652 949 1024 1287 1142 1145 1030 1036 1038 1279 1206 1019 1026 1102 1049 937 787 860 886 844 803 750 804 903 973 1006 1087 939 665 471 343 377 383 372 296 193 59 62 39 66 36 72 24 3 7
990 1241 1497 1777 1494 1341 1010 1174 1478 1407 1415 1438 1490 1354 1386 1360 1276 1336 1247 1263 1335 1261 1231 1187 1180 1174 1055 890 717 807 783 776 861 761 618 699 1015 846 686 679 592 484 917 1250 1144 992 746 988 1032 1148 1029 914 938 961 956 817 760 729 767 1185 1241 888 862 1161 1148 927 671 505 550 626 520 345 353 302 271 226 108 35 13 5 26 18 2 2 0
1047 1145 1508 1490 1405 1284 1246 1446 1464 1513 1570 1614 1554 1472 1424 1550 1334 1352 1327 1389 1351 1196 1143 1038 902 900 933 831 851 871 792 823 800 721 743 868 700 990 1086 869 725 735 787 784 910 836 829 968 969 872 890 869 842 936 933 958 767 1044 1246 1220 1359 1279 1241 1129 898 715 601 547 437 463 494 480 386 270 283 282 115 86 63 66 81 96 49 40 6
1112 1048 1595 1812 1593 1444 1141 1240 1569 1734 1652 1602 1581 1495 1523 1477 1444 1459 1413 1358 1398 1222 1138 1093 936 942 966 1004 970 920 953 964 1027 946 1034 1188 1055 1086 1247 1157 1215 1213 1140 1048 937 796 656 550 600 622 668 695 685 747 954 990 912 1076 1287 1232 1221 1201 1129 966 858 665 565 531 391 542 630 574 436 346 292 208 172 104 95 62 40 35 18 5 14
1187 1302 1601 1688 1788 1639 1350 1259 1640 1776 1621 1590 1612 1507 1483 1474 1457 1570 1547 1501 1479 1360 1295 1191 1118 1141 1160 1133 1141 1236 1222 1212 1152 1055 1167 1330 1276 1183 718 856 1116 1137 1072 949 834 763 637 511 480 564 595 658 626 746 770 892 898 903 977 1045 1074 1013 906 755 588 565 579 558 340 618 668 621 424 261 252 169 77 28 43 42 28 28 17 17 7
1254 1321 1489 1632 2054 1129 1336 1049 1377 1851 1820 1645 1651 1690 1581 1531 1544 1545 1567 1580 1606 1534 1452 1379 1338 1347 1363 1305 1291 1321 1322 1238 1109 1070 1451 1357 1170 1173 933 909 956 1005 871 824 739 662 575 443 581 533 525 579 680 750 773 843 797 787 750 824 861 789 688 621 622 563 426 296 504 576 609 594 534 285 220 146 120 118 44 31 28 27 3 5 2
1222 1229 1262 1582 1770 1493 1208 1147 1528 1819 1874 1874 1748 1607 1456 1444 1500 1541 1621 1698 1710 1661 1586 1424 1357 1418 1455 1430 1358 1346 1277 1262 1319 1334 1214 1108 969 956 980 999 901 949 852 812 773 578 520 515 485 464 496 587 702 713 808 698 773 756 735 696 705 717 685 578 456 429 291 272 351 500 565 538 554 434 304 274 252 186 142 117 78 4 1 0 2
984 1032 1236 1500 1739 1618 1439 1199 1063 1862 1895 1714 1565 1528 1526 1656 1647 1649 1727 1770 1774 1704 1638 1556 1453 1474 1453 1424 1338 1380 1386 1376 1281 1250 1156 1059 985 968 1035 1039 984 1008 893 810 679 826 532 456 425 450 692 746 745 720 746 664 673 804 790 709 574 671 592 544 458 293 219 239 316 392 458 592 637 306 348 384 354 177 108 41 28 0 1 0 1
978 1143 1244 1572 1774 1914 1591 1363 1174 1737 1894 1872 1639 1641 1716 1669 1752 1706 1764 1795 1830 1784 1762 1630 1466 1479 1486 1418 1347 1384 1492 1421 1373 1307 1150 1055 1110 1105 1200 1119 855 852 811 667 611 686 558 596 588 710 798 890 838 754 700 687 865 825 762 653 588 628 643 560 423 333 202 191 227 390 388 494 560 430 274 258 127 21 4 1 18 5 1 2 3
1067 1124 1440 1516 1785 1874 1773 1491 1378 1322 1385 1957 1894 1818 1735 1723 1782 1781 1819 1886 1969 1718 1676 1767 1503 1343 1278 1332 1350 1498 1512 1431 1364 1281 1256 1285 1251 1172 1216 1211 939 859 807 654 522 474 623 974 908 885 951 921 883 893 978 907 709 636 606 625 582 552 514 372 272 265 185 197 395 565 479 388 427 232 222 134 64 15 10 1 0 1 2 1 1
1045 1269 1523 1575 1780 1664 1879 1569 1440 1235 1210 1773 1900 1853 1758 1818 1728 1773 1856 1968 1968 1856 1769 1712 1735 1727 1458 1264 1266 1252 1297 1412 1482 1458 1502 1497 1432 1338 1306 1296 1197 974 764 631 515 508 895 1154 1009 960 900 916 886 873 786 665 415 394 392 521 824 569 442 349 223 308 391 419 448 445 312 172 233 175 208 145 104 39 3 11 20 12 4 3 1
1114 1266 1446 1618 1674 1691 1694 1774 1672 1379 1247 1488 1506 1999 1902 1896 1812 1862 1957 2035 1986 1936 1879 1832 1733 1718 1684 1374 1306 1171 1109 1328 1254 1429 1224 1484 1436 1459 1511 1371 1307 1235 995 678 552 577 955 1150 1050 934 780 626 749 696 556 521 444 453 356 601 673 655 467 319 280 316 456 444 312 314 228 409 469 357 174 151 107 95 16 2 1 10 3 0 3
1254 1269 1382 1408 1505 1546 1894 1951 1639 1721 1518 1412 1491 1964 2040 2039 2014 2042 1927 1970 2062 1997 1990 1950 1862 1756 1645 1682 1658 1414 1386 1293 1193 1151 1284 1382 1410 1403 1416 1342 1237 1258 1188 896 738 807 980 943 950 846 792 726 782 622 455 523 489 439 358 620 832 835 534 395 344 438 513 360 388 236 307 413 396 342 184 173 178 204 113 25 4 2 1 1 2
1190 1164 1295 1476 1554 1758 1788 1946 1841 1859 1564 1464 1474 1883 1979 2024 2060 1982 1987 2072 2143 2112 2081 2018 1970 1939 1829 1765 1672 1576 1436 1252 1137 1008 1102 1199 1513 1516 1557 1554 1164 1204 1239 1052 1034 994 977 936 937 949 901 898 764 579 422 422 268 250 487 755 965 847 536 400 389 477 484 397 360 194 297 494 349 382 298 328 273 24 4 6 3 4 4 1 2
1161 1355 1406 1548 1680 1904 1845 1887 1768 1872 1808 1591 1497 1907 1882 1871 1948 2009 2036 2183 2182 2122 2136 2087 2072 2034 1954 1923 1916 1708 1443 1334 1300 1069 1140 1328 1568 1584 1604 1612 1349 1161 1200 1070 1010 974 956 993 1129 1149 1100 976 736 575 427 330 196 458 690 755 948 929 569 486 543 635 596 457 369 397 376 384 474 449 341 327 193 27 4 2 2 2 3 2 2
1238 1445 1566 1549 1650 1773 1750 1693 1808 1824 1878 2003 1913 1799 1764 1537 1414 1626 2072 2158 2223 2237 2241 2172 2116 2075 2014 2022 1956 1784 1608 1528 1507 1424 1400 1628 1607 1681 1617 1603 1611 1257 1224 1154 1129 1171 1285 1276 1253 1126 1098 908 668 409 412 336 451 669 741 648 953 1082 580 576 608 736 680 532 367 366 377 348 438 510 298 176 72 5 1 1 3 2 0 2 0
1327 1432 1472 1407 1481 1482 1708 1752 1821 2397 2201 1568 1628 1734 1566 1269 1081 1108 1435 1445 1311 2006 2163 2129 2134 2112 2080 2113 2056 1846 1820 1785 1849 1743 1850 1746 1809 1724 1654 1616 1638 1575 1320 1267 1285 1446 1355 1131 1073 1017 872 775 584 474 521 603 704 695 596 574 860 717 588 491 776 746 667 592 485 434 356 440 562 374 257 207 102 12 7 0 1 1 0 2 1
1308 1369 1413 1456 1342 1470 1571 1695 1834 1923 2366 2098 1501 1492 1605 1474 1263 1098 1052 976 1029 1529 1776 2042 1834 2120 2116 2052 2061 2002 1892 1685 1915 1891 1866 1765 1945 1810 1826 1806 1727 1721 1524 1327 1322 1488 1412 1228 990 972 896 610 552 634 588 740 706 530 627 620 890 715 582 534 676 687 650 617 556 477 407 605 688 368 343 161 84 33 0 2 0 0 0 0 0
1185 1227 1333 1395 1378 1436 1574 1603 1679 1840 1925 2370 2237 1784 1579 1356 1265 1196 961 1122 1118 1308 1041 1630 1726 1560 1533 1505 1757 1609 1608 1418 1519 1662 1768 1772 1859 1508 1901 1910 1814 1714 1705 1544 1326 1390 1482 1333 1063 922 909 803 801 859 905 767 567 534 694 773 872 796 677 737 694 590 700 577 601 498 550 592 394 321 305 184 77 30 0 0 1 2 0 0 0
1015 1251 1303 1298 1283 1326 1398 1498 1711 1782 1927 2095 2347 2143 1714 1510 1214 1152 1262 1063 1185 1213 1251 1302 1400 1312 1368 1311 1470 1585 1989 1845 1626 1492 1274 1781 1728 1790 1931 1972 1884 1768 1737 1759 1492 1210 1158 1412 1145 1081 932 804 849 888 885 677 508 404 683 1014 892 926 891 841 814 735 648 633 583 428 600 704 379 400 289 126 74 40 2 0 2 1 0 0 1
1029 970 1058 1075 1218 1202 1279 1414 1627 1764 1904 2010 2023 2252 1760 1558 1475 1285 1104 1248 1286 1163 1155 1342 1287 1933 1440 1588 1772 1840 1874 1860 1892 1344 1865 1408 1645 1948 2087 1978 1986 1883 1800 1728 1657 1285 1178 1440 1252 1047 931 758 238 438 687 552 437 521 506 679 937 1070 869 852 852 688 679 775 654 599 652 504 517 472 280 161 119 31 5 1 0 0 0 1 0
1101 1006 996 1060 1107 1214 1248 1331 1350 1683 1854 1960 1991 2322 2186 2047 1866 1475 1414 1268 1167 1261 1155 1385 1605 1811 1783 1822 1781 1901 1856 1938 2097 1229 1736 1512 1529 1982 1890 1866 1997 1974 1885 1792 1694 1552 1340 1275 1183 1006 432 221 201 142 125 133 300 251 368 674 948 827 790 853 884 828 669 798 692 732 809 590 534 498 298 150 111 46 23 2 0 0 2 1 1
1153 1098 1090 1085 1106 1218 1294 1336 1403 1533 1744 1820 1913 2056 2109 1925 1657 1527 1437 1502 1611 1254 1092 1346 1470 1775 1612 1753 1666 1879 1938 2370 1331 1432 1524 1758 1762 1491 1336 1372 1764 1885 1890 1865 1729 1619 1388 1368 1186 630 401 267 192 24 8 53 115 168 464 686 664 705 706 760 789 788 742 770 615 783 914 706 646 601 372 189 125 47 30 2 1 2 1 0 1
1239 1225 1209 1189 1281 1316 1372 1398 1402 1530 1708 1877 1722 1746 1977 1816 1638 1593 1302 1470 1412 1299 1121 1203 1436 1789 1715 1846 1536 1872 1878 2333 2292 2116 1915 2353 2183 1948 1542 1518 1629 1630 1490 982 976 720 1095 1036 973 740 529 467 263 202 58 39 158 167 131 398 541 547 646 704 777 806 774 867 799 761 970 880 660 662 426 225 164 67 22 1 2 1 0 0 0
1282 1307 1334 1320 1413 1398 1429 1394 1407 1466 1593 1810 1673 1683 1750 1804 1738 1634 1547 1472 1400 1443 1281 1198 1538 1631 1780 1754 1546 1938 1954 2181 2335 2442 2419 2339 2192 2086 1748 1509 1734 1761 1374 1140 816 1110 929 752 721 649 477 489 465 375 202 56 62 211 133 170 376 535 524 643 752 833 802 950 990 653 932 1088 986 656 466 280 168 114 30 2 0 1 0 0 0
1340 1409 1338 1422 1501 1526 1489 1456 1496 1484 1492 1518 1596 1706 1768 1711 1690 1759 1704 1692 1534 1395 1360 1410 1696 1693 1742 1418 1530 1660 1969 2213 2260 2274 2137 2143 2170 2116 1962 1751 1684 1724 1726 1041 881 1013 858 654 597 502 393 505 366 226 106 42 164 55 94 107 148 371 525 592 714 806 765 864 871 553 838 1130 1121 751 453 298 245 182 51 25 4 1 0 0 0
1416 1328 1356 1456 1597 1589 1556 1408 1538 1474 1293 1241 1496 1601 1670 1747 1596 1778 1785 1623 1686 1657 1582 1505 1725 1769 1802 1828 1935 1899 1853 2024 2218 2101 1966 1890 2046 2060 1969 1945 1677 1688 1497 996 839 724 745 697 458 310 375 406 213 118 5 0 48 146 46 126 190 96 413 608 715 764 779 818 768 652 837 1108 1105 1235 590 372 364 199 95 49 4 0 1 0 0
1367 1427 1462 1538 1662 1626 1588 1543 1495 1405 1301 1316 1424 1489 1546 1608 1586 1695 1770 1707 1523 1498 1665 1649 1658 1707 1829 1951 1942 1904 1901 2129 2102 1995 1969 1919 1984 2024 1705 1275 1625 1526 1427 1128 823 752 591 582 561 489 406 322 266 122 20 7 31 67 16 9 204 148 168 452 664 771 722 717 729 681 680 1084 1058 1118 726 476 332 261 166 102 20 1 0 1 0
1376 1497 1450 1653 1616 1668 1608 1555 1590 1527 1328 1328 1291 1331 1425 1493 1446 1473 1380 1675 1514 1468 1561 1460 1704 1730 1763 1940 1902 2006 2158 2134 2055 1944 1762 1837 1449 1755 1700 1590 1016 1465 1311 1080 1158 925 743 656 634 556 33 133 28 121 41 21 5 8 7 5 108 266 294 325 485 533 593 682 733 690 504 918 898 976 1038 646 399 303 224 164 71 10 0 0 0
1304 1325 1460 1536 1658 1730 1694 1604 1544 1589 1446 1400 1398 1494 1471 1484 1377 1497 1462 1409 1232 1215 1287 1377 1445 1788 1957 1874 1888 1751 1586 1437 1250 1316 1426 1166 899 906 1172 1411 1009 998 949 1096 928 985 884 780 620 267 83 101 97 150 73 36 33 7 14 6 97 235 285 357 306 336 391 512 624 746 663 682 970 880 835 828 743 370 258 222 189 50 6 0 0
1300 1386 1448 1461 1649 1683 1642 1642 1527 1569 1464 1435 1430 1453 1541 1515 1408 1284 1395 1131 1063 1198 1255 1308 1199 1251 1340 1343 1404 1196 1212 1095 1131 918 754 757 614 647 828 821 995 850 778 1005 1012 924 874 832 611 581 402 258 179 237 295 164 94 35 32 138 256 323 314 386 358 305 326 461 574 755 694 657 984 844 747 713 643 780 376 283 263 125 34 3 1
1318 1405 1447 1362 1539 1598 1564 1659 1600 1550 1487 1483 1416 1486 1510 1536 1451 1311 1280 1167 1113 1104 1016 1037 1077 1054 1132 1189 1045 1059 1004 985 840 653 769 799 823 831 745 815 689 696 711 952 1003 1028 955 842 680 617 549 419 432 578 386 458 414 395 372 233 391 357 330 366 499 522 457 424 482 572 666 655 850 1054 715 724 624 519 786 395 264 186 105 35 17
1429 1434 1336 1419 1498 1623 1591 1680 1572 1533 1495 1435 1706 1625 1576 1516 1344 1287 1117 1050 1061 928 894 782 768 775 965 804 863 945 920 856 735 654 680 752 600 560 537 614 660 596 462 655 892 1323 1204 855 636 617 604 584 566 748 565 774 708 633 660 604 505 605 634 434 514 604 681 563 488 610 594 567 647 878 1106 810 761 540 406 692 380 288 194 97 55
1407 1626 1414 1538 1763 1834 1916 1591 1598 1774 1771 1729 1736 1541 1651 1465 1232 1152 1021 897 750 776 820 882 800 930 740 635 938 768 688 588 604 590 841 979 753 642 566 670 610 594 633 601 950 1124 1390 1260 1010 668 949 910 896 674 845 692 892 730 604 804 595 430 742 626 674 705 514 658 661 595 602 559 523 656 945 1041 945 578 404 467 750 498 292 167 133
1460 1729 1536 1486 1747 1782 1771 1278 1585 1548 1539 1501 1585 1266 1236 925 836 943 850 786 696 591 692 654 618 670 626 471 381 490 498 487 590 491 806 774 600 622 633 530 542 520 576 584 603 841 961 966 1108 1085 1126 831 722 836 707 782 803 848 737 630 655 655 666 637 728 592 460 514 475 622 669 608 596 559 770 728 923 911 452 324 476 647 664 343 222
1336 1637 1706 1593 1312 1393 1204 1222 1277 1325 1108 1102 1005 942 728 620 303 213 214 332 420 493 577 492 392 432 496 515 290 264 300 262 439 767 689 480 506 582 451 459 545 598 594 530 322 749 1071 903 759 864 1036 1120 589 543 576 603 736 603 669 707 499 271 407 579 703 771 299 438 498 492 621 614 585 530 776 644 858 808 618 277 344 346 508 527 459
697 1079 1339 1480 1234 1039 1076 1159 1081 1119 952 754 571 241 30 56 106 96 53 100 189 318 471 449 522 453 477 585 446 372 488 662 571 490 484 600 777 977 849 550 571 554 601 522 384 430 552 629 751 871 864 1076 852 637 541 585 326 365 564 707 768 423 223 495 734 546 516 481 637 507 517 595 606 562 567 763 729 768 700 396 222 199 259 407 439
0 0 317 809 1086 1257 1309 967 814 520 52 12 4 0 8 11 6 23 52 57 124 317 442 448 474 630 679 382 472 645 501 402 351 302 312 292 530 608 516 434 450 528 534 543 526 446 475 501 679 828 764 1047 906 1049 752 556 439 419 448 583 598 270 189 162 266 598 655 618 422 521 381 549 628 587 754 831 814 802 740 578 431 357 336 239 363
0 0 0 44 775 1196 889 369 183 59 11 16 2 6 36 102 102 48 50 79 159 190 300 364 392 441 584 620 547 470 339 386 269 277 136 192 244 309 291 228 320 436 605 510 542 536 474 418 429 541 551 691 738 1016 671 337 234 228 415 507 564 304 154 58 88 354 654 880 805 635 542 396 520 563 594 608 725 746 781 757 606 384 387 397 239
0 0 0 9 435 906 589 315 66 28 22 1 14 42 60 44 135 294 218 110 102 268 263 121 26 8 2 3 5 3 28 28 24 138 385 266 101 120 247 384 321 370 432 324 391 521 490 480 483 468 414 539 875 581 484 297 280 262 492 503 683 645 380 189 71 100 253 506 741 743 710 594 548 599 595 582 684 714 748 708 684 498 468 452 532
0 0 6 10 83 572 642 315 9 21 78 117 79 144 187 206 176 149 180 70 70 151 120 23 0 0 0 0 3 7 27 28 72 153 205 452 192 78 105 121 165 191 221 231 158 189 313 321 382 379 396 394 721 542 390 224 309 252 156 307 489 676 644 375 214 148 145 274 470 653 766 750 543 580 612 612 618 601 529 652 674 573 534 476 484
6 1 12 6 9 20 123 35 169 11 8 28 42 18 2 9 256 64 160 2 0 1 30 2 0 0 0 0 0 3 14 15 101 184 427 360 222 158 122 188 221 89 66 62 98 178 254 237 283 252 205 321 443 331 336 322 343 317 205 310 210 224 648 522 331 228 199 303 438 416 316 372 305 339 541 538 503 544 444 479 566 624 629 541 470
1 1 1 7 18 20 12 15 10 8 4 6 2 4 1 0 4 20 1 10 0 0 0 0 0 0 0 0 0 0 4 7 13 20 20 34 41 22 16 19 15 38 8 1 2 5 23 129 219 243 211 179 202 166 351 433 375 334 294 350 396 320 72 312 457 540 139 148 128 190 315 280 323 325 403 440 392 493 527 450 446 542 550 549 490
3 4 2 9 14 29 8 18 12 8 11 7 7 6 4 9 1 2 6 0 0 0 0 0 0 0 0 0 0 0 0 3 11 17 10 14 18 23 14 13 10 14 5 0 0 0 0 2 54 201 194 230 146 137 182 257 269 291 427 400 310 246 362 342 118 476 245 192 70 50 60 105 111 224 341 464 526 638 592 518 555 532 612 576 532
7 10 1 8 21 25 4 18 13 13 17 24 16 12 22 36 20 14 6 6 9 1 0 0 0 0 0 0 0 0 0 1 2 6 6 6 11 14 12 2 5 2 1 0 0 0 0 0 1 17 51 92 72 183 124 36 107 157 171 666 326 268 466 476 327 674 501 345 145 12 103 142 122 88 118 119 176 250 530 593 633 689 643 570 516
13 9 0 7 27 21 1 8 12 14 33 22 21 36 58 71 74 34 18 13 21 43 50 64 24 0 0 0 0 0 0 0 0 0 1 2 4 5 6 2 1 0 0 0 0 0 0 0 0 0 0 2 32 10 16 33 39 2 37 89 136 160 264 200 473 484 506 815 327 273 331 4 83 112 36 106 154 152 281 276 336 346 430 512 472
23 1 0 29 17 13 0 3 13 18 35 19 19 65 56 134 82 36 11 9 43 46 15 22 40 6 0 0 0 0 0 0 0 0 0 0 0 0 0 0 0 0 0 0 0 0 0 0 0 0 0 0 2 3 0 0 1 0 0 6 28 80 226 248 207 137 166 359 647 642 94 19 11 10 85 20 141 115 121 212 116 166 330 346 389
2 26 30 35 8 7 4 7 13 25 44 17 18 44 123 145 65 24 8 0 6 15 8 6 14 7 3 0 0 0 0 0 0 0 0 0 0 0 0 0 0 0 0 0 0 0 0 0 0 0 0 0 0 0 0 0 0 1 2 0 4 4 28 126 22 26 92 111 132 167 245 149 341 50 33 122 199 280 286 204 137 77 100 283 360
8 41 40 51 24 1 3 0 1 35 50 22 12 24 88 90 69 39 28 10 0 0 6 23 25 6 5 2 0 0 0 0 0 0 0 0 0 0 0 0 0 0 0 0 0 0 0 0 0 0 0 0 0 0 0 0 0 0 0 0 0 0 1 2 2 1 11 83 15 2 29 2 34 138 32 206 69 48 67 145 174 95 87 189 322
13 40 56 63 66 5 10 2 8 30 35 26 9 8 26 40 81 59 41 27 4 2 4 14 12 8 6 0 0 0 0 0 0 0 0 0 0 0 0 0 0 0 0 0 0 0 0 0 0 0 0 0 0 0 0 0 0 0 0 0 0 1 4 4 4 2 6 6 5 5 6 2 0 0 5 3 1 1 5 116 150 196 135 113 133
Wind_Speed
23 28 27 29 29 30 31 30 32 33 32 32 31 31 32 33 33 34 33 33 32 32 31 30 30 30 28 27 26 26 25 24 24 22 19 17 13 16 17 16 16 16 17 17 19 19 19 20 20 19 18 16 15 15 15 14 11 10 10 16 17 16 15 15 16 14 13 14 13 12 11 9 8 7 7 7 nan nan nan nan nan nan nan nan nan
27 27 27 28 30 30 32 32 33 34 32 31 32 32 32 33 33 34 33 32 32 31 30 29 29 29 28 28 27 27 26 24 23 19 19 16 17 16 18 16 14 13 16 16 17 17 16 20 20 19 18 17 15 14 14 14 12 11 13 15 17 18 17 16 16 16 16 14 12 12 11 10 8 8 8 7 nan nan nan nan nan nan nan nan nan
29 27 26 28 30 31 31 31 35 34 32 32 33 33 33 33 33 33 33 32 31 31 31 30 30 31 30 28 28 26 24 23 21 19 18 16 15 17 17 17 16 11 13 17 18 19 18 20 21 19 18 16 15 14 14 14 14 12 12 16 18 17 16 17 17 16 15 14 13 12 12 10 8 7 7 7 7 nan nan nan nan nan nan nan nan
31 27 26 27 29 30 31 32 35 34 32 31 33 34 33 33 34 33 32 31 31 31 31 31 30 31 31 30 28 26 24 22 20 18 16 14 16 16 16 17 18 17 17 17 16 17 18 20 20 18 17 16 15 14 14 15 14 14 15 14 17 18 17 16 17 17 14 13 12 10 7 7 7 7 7 7 8 nan nan nan nan nan nan nan nan
31 28 26 26 26 28 31 32 35 35 33 33 32 34 34 34 33 32 32 32 30 31 32 32 31 30 29 28 26 25 24 21 18 18 15 14 15 15 16 17 18 17 17 17 16 17 17 18 19 17 16 15 14 14 15 15 14 15 16 16 16 17 17 17 17 16 15 13 10 7 8 7 6 7 7 8 9 8 nan nan nan nan nan nan nan
32 29 26 26 26 27 31 31 35 35 34 34 34 34 33 34 34 32 31 30 30 30 30 30 30 29 27 26 25 24 23 21 19 17 15 13 12 13 15 16 18 19 18 17 16 16 17 18 19 17 15 15 14 15 14 14 13 14 16 16 17 18 18 18 18 17 16 14 9 9 8 7 6 6 8 8 nan nan nan nan nan nan nan nan nan
33 29 28 27 26 28 31 32 34 36 34 34 34 34 33 33 33 32 31 31 30 30 29 29 29 28 26 25 24 23 22 21 18 17 18 18 17 15 14 16 18 20 19 17 16 16 17 18 20 17 15 15 15 15 14 14 13 15 15 16 17 17 17 18 19 19 16 11 11 9 8 6 6 6 7 8 8 8 nan nan nan nan nan nan nan
32 30 29 28 28 29 32 30 32 36 36 34 34 35 35 33 31 30 29 30 30 29 29 28 26 26 25 24 22 21 21 20 19 18 19 19 17 15 16 15 17 19 20 18 17 16 17 18 19 17 16 15 15 15 15 14 13 14 16 17 18 18 18 20 21 20 16 13 12 11 9 7 6 6 6 7 7 8 8 8 nan nan nan nan nan
32 31 30 28 29 33 32 31 30 35 35 35 35 35 34 32 31 29 28 28 29 29 28 27 26 24 23 22 20 19 20 19 19 19 18 18 17 16 15 16 16 18 20 19 17 14 16 18 18 18 17 17 16 16 16 14 13 14 17 19 18 20 20 20 21 19 15 14 13 12 9 8 8 8 7 8 9 9 8 nan nan nan nan nan nan
32 30 30 29 30 33 32 31 30 31 35 36 36 35 34 32 30 29 28 28 27 27 27 26 25 24 22 20 18 18 19 19 18 18 19 18 17 16 15 17 16 18 20 20 17 14 14 17 19 19 19 19 18 18 17 15 14 13 16 19 20 22 23 23 21 17 16 15 14 12 12 11 9 8 8 9 9 nan nan nan nan nan nan nan nan
32 31 31 32 33 33 31 30 30 31 34 37 36 35 34 31 29 28 28 27 27 26 25 25 25 23 20 18 18 18 18 18 17 17 18 19 19 17 17 17 17 18 19 20 18 16 13 16 21 20 21 21 20 20 18 16 14 13 15 18 20 23 25 24 17 17 16 15 14 13 13 13 12 10 9 9 nan nan nan nan nan nan nan nan nan
32 32 32 31 34 32 30 31 32 30 30 37 37 36 33 30 29 28 28 27 27 26 24 23 22 21 19 17 17 18 19 19 19 18 19 19 20 18 18 19 18 18 18 19 20 16 17 21 23 21 21 21 19 19 18 17 16 14 15 18 20 21 24 23 18 18 17 16 15 14 12 12 12 12 9 10 11 nan nan nan nan nan nan nan nan
33 33 33 33 33 33 29 29 32 33 30 36 35 35 32 30 29 28 27 26 26 25 24 22 20 18 17 17 18 19 19 19 20 20 21 21 21 19 19 19 18 18 18 19 20 19 20 22 21 21 20 20 19 19 21 18 15 13 13 15 18 18 21 19 19 18 18 17 16 14 14 14 14 12 10 10 10 nan nan nan nan nan nan nan nan
34 34 33 33 33 34 30 29 30 33 34 33 32 31 31 29 29 28 26 26 26 25 23 20 18 16 16 17 19 21 21 21 23 22 21 23 22 19 18 18 17 17 18 19 20 21 21 20 20 20 19 19 21 22 21 18 15 13 12 14 14 14 19 19 20 19 19 18 17 16 15 14 14 11 11 11 11 10 11 nan nan nan nan nan nan
35 35 34 34 33 32 33 31 30 31 34 32 28 29 29 28 27 27 26 25 25 24 22 19 17 16 17 18 20 22 23 23 24 24 22 23 23 19 16 17 16 17 18 20 21 21 21 19 20 19 18 19 23 22 21 18 15 13 13 12 12 11 15 18 18 20 19 18 18 17 16 16 15 12 13 13 13 nan nan nan nan nan nan nan nan
34 34 34 33 32 30 29 32 32 31 32 33 31 30 28 27 28 27 25 25 25 23 20 18 17 17 17 19 21 23 24 24 25 26 24 24 22 19 15 15 17 17 18 20 21 22 22 21 21 20 19 21 23 22 21 19 16 14 13 12 12 11 14 18 20 20 20 19 19 19 18 18 13 14 14 14 15 nan nan nan nan nan nan nan nan
33 33 33 33 31 29 29 29 31 33 30 29 29 28 26 27 27 26 24 25 25 21 18 17 17 18 19 20 21 23 24 25 25 24 25 23 21 18 15 14 16 17 18 19 20 22 24 24 23 21 19 20 22 22 21 19 18 14 13 12 12 13 17 20 21 20 20 20 19 20 19 18 15 17 16 15 nan nan nan nan nan nan nan nan nan
30 31 32 32 30 29 28 28 29 29 27 27 27 25 26 29 26 23 23 25 22 17 17 17 17 18 20 21 22 23 23 25 25 25 24 21 18 17 15 14 14 16 17 18 19 21 23 24 25 23 19 19 21 22 23 21 18 16 13 12 12 14 18 20 21 22 21 20 19 20 20 21 17 16 16 15 15 nan nan nan nan nan nan nan nan
26 27 29 30 31 30 30 29 27 26 25 23 23 22 25 27 24 21 29 24 14 13 18 18 18 20 22 22 22 23 23 25 25 23 21 20 18 17 15 14 13 14 17 17 18 19 21 23 26 25 20 18 20 24 24 22 20 17 15 10 11 13 17 18 20 22 22 20 20 20 21 20 17 17 16 16 nan nan nan nan nan nan nan nan nan
24 25 26 28 30 30 30 28 26 23 21 21 21 21 24 23 24 27 25 18 16 16 18 17 17 20 21 20 19 20 21 22 24 19 20 18 17 14 14 13 12 12 14 17 17 19 20 21 26 26 21 19 20 24 25 24 22 20 17 12 11 13 13 16 19 20 22 22 21 20 22 17 17 17 17 17 nan nan nan nan nan nan nan nan nan
25 26 26 27 29 30 29 27 25 23 21 20 20 20 22 24 22 25 23 20 16 21 16 16 19 19 20 18 17 15 17 18 19 17 18 17 16 15 14 14 13 12 13 16 18 17 19 21 24 25 22 21 21 26 28 26 24 22 20 14 11 10 11 14 18 20 22 23 21 21 19 17 17 18 17 17 nan nan nan nan nan nan nan nan nan
27 28 28 29 28 28 28 27 24 22 21 19 19 19 19 19 19 21 19 19 18 23 16 17 17 18 19 19 17 15 15 15 18 18 15 16 17 15 15 15 14 14 14 15 18 18 19 20 24 25 22 22 21 22 27 28 27 24 21 18 10 11 12 13 16 19 21 22 22 23 18 16 16 18 18 18 18 nan nan nan nan nan nan nan nan
28 29 30 30 29 28 28 26 23 21 21 20 18 18 18 17 18 19 20 17 19 17 16 17 17 17 16 16 16 14 13 14 16 18 16 17 16 16 15 15 16 17 17 15 16 19 21 21 24 28 26 21 18 23 27 28 26 25 21 16 13 12 12 13 15 18 20 23 22 24 18 16 16 18 18 18 18 nan nan nan nan nan nan nan nan
29 29 30 30 29 29 28 26 22 21 20 19 17 17 18 18 18 20 17 17 17 17 18 18 15 15 15 16 16 14 13 14 15 17 19 16 16 17 13 12 14 17 18 16 15 17 22 23 25 28 24 19 18 nan nan nan 27 25 22 17 15 13 12 13 13 16 19 22 23 23 19 17 17 19 18 17 17 nan nan nan nan nan nan nan nan
29 29 29 28 29 30 28 25 22 19 18 17 17 16 17 18 18 18 18 15 16 16 16 15 14 14 14 15 15 14 14 14 14 15 15 16 16 15 13 12 12 15 17 15 15 17 16 19 21 20 20 19 19 23 nan nan 28 26 23 20 17 14 13 13 14 15 18 20 22 22 19 18 18 20 20 18 18 nan nan nan nan nan nan nan nan
28 27 27 27 27 28 27 24 21 18 17 17 17 17 17 17 16 16 16 14 14 15 15 14 13 13 14 14 15 14 14 14 14 14 15 15 15 14 13 14 14 15 17 16 16 17 18 19 20 19 19 19 20 23 28 nan nan 27 24 22 19 16 14 13 14 15 17 19 21 20 21 18 18 19 20 20 19 17 nan nan nan nan nan nan nan
25 24 25 25 25 25 24 22 20 18 17 17 17 17 17 17 16 15 15 14 14 15 14 14 14 14 14 15 13 13 13 14 14 15 15 15 14 13 13 13 15 17 18 17 17 17 17 19 20 21 18 18 21 24 28 nan 30 nan nan 23 21 18 15 14 14 15 16 17 20 19 19 18 17 18 20 20 20 19 nan nan nan nan nan nan nan
24 23 24 24 24 24 22 20 19 17 17 17 18 17 18 17 15 15 15 15 14 14 14 14 16 15 14 15 14 14 14 15 15 15 16 16 14 13 12 14 15 17 19 18 18 17 17 19 20 22 19 19 20 23 nan nan nan 30 nan 25 23 nan 17 16 15 14 15 16 17 18 17 17 17 17 18 19 21 21 nan nan nan nan nan nan nan
25 23 22 23 23 22 20 18 17 16 17 17 17 18 17 15 14 15 16 14 15 14 15 16 15 16 15 15 15 16 16 16 17 17 19 18 16 13 14 14 14 16 19 18 18 18 18 19 21 22 23 21 22 22 nan nan nan nan nan nan 24 22 20 17 16 15 14 16 16 17 16 16 15 16 17 18 20 21 21 21 nan nan nan nan nan
24 23 22 21 20 20 18 16 16 16 17 17 17 17 17 16 16 17 15 15 17 15 16 16 16 16 16 16 17 18 18 19 20 20 21 20 13 14 14 15 13 12 15 15 18 19 18 20 22 24 nan 24 nan 24 nan nan nan nan nan nan 25 23 21 19 17 15 15 15 16 17 17 17 15 15 16 17 17 20 20 21 nan nan nan nan nan
25 23 22 21 20 19 17 15 15 16 17 16 16 17 17 17 17 18 17 16 17 18 18 18 17 17 17 17 19 21 23 25 23 23 25 20 11 14 14 15 12 11 12 13 17 18 19 19 21 24 nan 24 nan 26 nan nan nan nan nan nan nan 24 22 21 19 18 16 16 16 17 17 15 16 15 15 17 16 18 19 20 21 nan nan nan nan
23 24 22 21 20 19 18 16 15 16 16 17 17 17 17 17 18 18 17 18 20 20 20 20 20 21 23 24 24 26 28 26 27 27 25 16 12 13 17 13 13 14 13 14 16 18 18 19 20 23 25 25 26 26 25 24 nan nan nan 30 28 25 24 23 21 19 17 17 17 18 17 16 15 15 15 16 17 18 18 19 20 19 nan nan nan
23 24 24 23 22 20 19 17 16 16 16 17 18 18 19 19 20 19 19 21 22 21 20 21 22 23 24 25 26 28 29 29 28 28 28 19 15 16 20 15 14 15 13 14 15 17 18 19 19 21 23 24 23 24 25 25 25 27 30 30 30 27 26 24 23 21 19 18 18 17 16 16 15 15 15 16 16 17 17 18 18 19 20 nan nan
24 24 24 23 22 21 20 19 17 17 18 19 19 19 21 22 21 20 21 22 21 20 19 19 19 20 23 24 25 27 27 29 28 30 28 23 19 21 22 17 14 16 16 15 16 17 18 19 20 21 23 24 25 25 24 24 25 26 27 30 31 30 29 26 25 24 23 21 19 18 17 16 16 16 16 14 15 15 15 17 17 17 19 nan nan
24 24 23 23 23 22 21 21 20 20 20 20 21 21 22 23 22 22 23 22 22 22 22 21 20 20 21 21 25 28 28 32 28 29 29 25 21 22 22 18 17 19 19 18 15 14 17 19 21 22 24 25 27 27 26 26 27 28 28 30 30 31 31 29 28 26 25 24 22 20 19 17 17 16 17 17 16 14 14 15 15 16 16 17 19
23 24 24 23 23 23 22 22 21 21 22 23 23 23 24 24 25 24 24 23 23 23 23 23 23 23 24 25 25 26 28 28 27 28 30 26 25 24 21 23 21 21 18 17 14 14 15 18 21 22 23 23 25 27 29 28 29 30 30 29 32 32 31 31 30 29 28 27 25 23 21 19 18 17 17 18 18 16 14 13 13 15 14 14 16
25 26 25 24 23 23 22 22 23 23 25 27 27 27 27 27 27 27 26 25 25 25 25 24 24 24 25 26 27 27 28 28 28 29 30 29 27 25 22 23 24 22 20 18 16 15 16 16 18 19 22 22 24 26 27 29 30 30 31 31 32 32 32 33 33 33 33 29 27 25 23 21 20 19 19 18 19 18 18 14 13 13 13 14 14
25 24 25 25 24 23 22 23 26 27 28 28 28 28 nan nan 29 nan nan nan 27 26 26 25 26 26 26 27 28 29 30 31 31 31 31 30 28 27 25 25 25 23 22 20 18 15 15 15 16 17 17 20 24 25 26 29 31 32 33 33 34 33 33 35 36 36 33 31 30 27 25 25 23 21 20 19 19 19 19 17 14 12 12 13 13
nan nan 26 27 27 24 24 24 26 28 nan nan nan nan nan nan nan nan nan nan 28 27 27 27 27 27 28 29 29 30 31 31 32 32 33 32 30 29 29 25 24 25 23 23 23 21 17 16 16 15 14 17 20 25 26 28 32 34 35 35 35 35 34 34 36 37 36 34 31 30 30 27 25 24 23 22 22 21 19 19 17 15 13 11 12
nan nan nan nan 28 27 25 24 24 nan nan nan nan nan nan 29 30 nan nan nan 29 29 28 28 28 28 28 29 30 30 31 31 32 32 33 32 32 30 29 26 25 24 26 26 25 21 19 20 20 16 15 17 20 25 28 30 35 35 35 37 37 38 36 nan nan 36 38 38 35 34 31 30 28 27 25 25 24 23 22 21 20 18 16 15 12
nan nan nan nan 29 29 28 25 nan nan nan nan nan nan nan nan 29 28 29 29 29 29 29 29 nan nan nan nan nan nan nan nan nan 32 31 32 32 32 30 29 27 26 26 29 26 25 23 23 23 20 17 17 19 24 26 26 29 31 32 33 38 39 39 36 nan 36 38 40 39 36 34 33 31 30 29 28 26 25 25 24 23 21 20 19 18
nan nan nan nan nan 30 29 28 nan nan nan 25 nan 25 25 26 27 27 28 nan nan 27 28 nan nan nan nan nan nan nan nan nan nan 32 31 31 33 nan 32 30 29 29 30 31 32 30 28 27 26 25 23 19 19 21 24 22 17 19 26 29 35 41 44 41 38 37 38 40 39 38 37 35 33 32 32 31 29 28 27 27 26 25 23 22 21
nan nan nan nan nan nan 29 nan 27 nan nan nan nan nan nan nan 26 nan 26 nan nan nan nan nan nan nan nan nan nan nan nan nan 32 32 31 32 32 32 31 30 29 nan nan nan nan 35 32 30 27 25 25 25 24 23 23 19 15 17 19 22 23 34 41 42 44 42 41 41 41 39 38 36 34 34 34 33 33 31 30 29 28 27 26 25 24
nan nan nan nan nan nan nan nan nan nan nan nan nan nan nan nan nan nan nan nan nan nan nan nan nan nan nan nan nan nan nan nan nan nan nan nan nan nan nan nan nan nan nan nan nan nan nan 34 32 30 28 28 24 24 23 20 19 19 16 14 19 24 nan 33 42 44 43 41 40 39 39 38 37 36 36 35 35 34 33 32 30 29 28 27 27
nan nan nan nan nan nan nan nan nan nan nan nan nan nan nan nan nan nan nan nan nan nan nan nan nan nan nan nan nan nan nan nan nan nan nan nan nan nan nan nan nan nan nan nan nan nan nan nan nan 35 33 30 29 28 27 24 22 23 20 19 18 17 18 28 36 39 42 41 nan nan nan 39 38 37 37 36 36 36 35 33 32 31 30 29 28
nan nan nan nan nan nan nan nan nan nan nan nan nan nan nan nan nan nan nan nan nan nan nan nan nan nan nan nan nan nan nan nan nan nan nan nan nan nan nan nan nan nan nan nan nan nan nan nan nan nan nan nan nan 32 31 nan 28 26 24 20 20 19 20 23 28 33 40 43 42 nan 44 43 43 nan 41 40 39 38 38 36 35 33 32 31 31
nan nan nan nan nan nan nan nan nan nan nan nan nan nan nan nan nan nan nan nan nan nan nan nan nan nan nan nan nan nan nan nan nan nan nan nan nan nan nan nan nan nan nan nan nan nan nan nan nan nan nan nan nan nan nan nan nan nan nan nan 23 23 20 20 22 28 31 36 37 39 40 nan nan 45 nan 42 42 42 41 39 38 36 35 34 33
nan nan nan nan nan nan nan nan nan nan nan nan nan nan nan 21 nan nan nan nan nan nan nan nan nan nan nan nan nan nan nan nan nan nan nan nan nan nan nan nan nan nan nan nan nan nan nan nan nan nan nan nan nan nan nan nan nan nan nan nan nan nan 23 22 24 24 27 30 33 34 nan nan nan nan nan nan 44 42 40 39 39 38 38 37 36
nan nan nan nan nan nan nan nan nan nan nan nan nan nan 21 22 nan nan nan nan nan nan nan nan nan nan nan nan nan nan nan nan nan nan nan nan nan nan nan nan nan nan nan nan nan nan nan nan nan nan nan nan nan nan nan nan nan nan nan nan nan nan nan 28 nan nan nan 28 29 32 32 35 37 nan nan 43 42 41 40 38 38 nan 37 36 36
nan nan nan nan nan nan nan nan nan nan nan nan nan nan nan nan nan nan nan nan nan nan nan nan nan nan nan nan nan nan nan nan nan nan nan nan nan nan nan nan nan nan nan nan nan nan nan nan nan nan nan nan nan nan nan nan nan nan nan nan nan nan nan nan nan nan nan nan nan nan nan nan nan 37 nan 38 nan nan nan 38 36 nan nan 37 36
nan nan nan nan nan nan nan nan nan nan nan nan nan nan nan nan nan nan nan nan nan nan nan nan nan nan nan nan nan nan nan nan nan nan nan nan nan nan nan nan nan nan nan nan nan nan nan nan nan nan nan nan nan nan nan nan nan nan nan nan nan nan nan nan nan nan nan nan nan nan nan nan nan nan nan nan nan nan nan 37 36 37 37 37 37
Wind_Direction
278 283 285 285 287 292 295 297 294 292 293 296 297 297 296 295 295 297 298 298 298 300 302 303 305 307 308 307 305 304 303 297 296 302 303 309 295 263 253 250 264 284 286 306 305 310 306 303 300 296 290 284 286 290 296 294 275 257 233 228 223 228 236 237 241 247 249 248 251 254 258 263 263 263 266 267 nan nan nan nan nan nan nan nan nan
286 284 285 288 289 292 295 298 292 292 295 297 298 297 297 297 297 298 299 299 300 300 302 303 304 304 304 303 303 303 302 300 299 303 304 311 291 281 267 255 260 274 301 304 305 300 307 300 297 294 287 285 286 288 295 298 283 249 237 235 228 227 223 227 233 238 243 247 249 253 255 255 256 264 267 267 nan nan nan nan nan nan nan nan nan
279 282 283 288 290 292 294 295 291 292 296 298 298 298 298 299 299 298 299 299 300 301 302 303 304 303 303 304 303 302 301 303 304 300 297 298 302 297 289 281 277 290 303 309 319 317 306 295 294 293 288 285 285 287 295 298 282 256 242 230 227 234 230 229 236 241 243 250 253 256 261 259 254 256 258 255 250 nan nan nan nan nan nan nan nan
277 280 282 286 288 292 295 296 294 294 297 297 298 299 300 300 300 299 299 300 301 303 304 304 305 306 306 307 305 305 305 303 299 296 297 298 298 300 297 290 296 305 300 303 305 309 304 297 296 293 287 282 283 287 293 292 283 250 232 232 236 235 236 236 233 237 244 253 257 248 228 237 240 250 252 248 244 nan nan nan nan nan nan nan nan
274 281 280 283 289 290 293 298 295 296 297 298 298 299 300 301 300 300 302 303 303 304 305 305 306 306 306 305 305 303 302 300 293 290 288 289 296 299 298 288 280 282 289 294 301 305 304 299 295 293 286 281 282 287 289 292 276 244 238 235 239 241 239 236 234 241 237 233 242 224 225 232 223 243 251 250 243 238 nan nan nan nan nan nan nan
274 279 278 283 287 291 294 297 297 296 298 299 299 300 300 301 302 302 303 304 304 304 304 304 305 305 305 305 303 301 300 299 294 285 276 274 280 287 290 284 276 273 279 288 297 302 303 301 297 293 284 279 279 281 286 291 278 259 246 239 238 235 234 234 236 236 231 228 225 214 225 229 224 214 246 247 nan nan nan nan nan nan nan nan nan
277 279 279 283 286 294 295 299 300 297 298 299 300 300 300 301 303 305 306 306 305 304 302 301 302 303 304 304 303 302 301 301 295 278 258 252 249 252 272 281 273 269 271 281 290 298 302 301 299 292 282 275 273 277 284 289 284 264 250 239 231 232 234 237 237 233 227 227 211 210 210 218 218 207 249 244 237 235 nan nan nan nan nan nan nan
277 280 283 283 287 294 295 300 300 300 299 299 300 300 301 303 305 307 307 306 304 301 300 299 300 301 303 303 302 302 304 303 295 277 263 256 258 259 251 258 268 266 268 274 282 290 299 300 299 295 281 271 269 273 280 285 280 262 250 241 232 230 232 234 236 232 214 218 213 201 197 201 212 208 246 245 242 236 229 225 nan nan nan nan nan
279 283 285 286 289 295 295 296 302 301 300 300 300 300 302 304 307 308 307 304 302 300 299 299 300 302 302 301 301 302 304 305 301 292 279 268 267 266 265 258 255 261 261 264 271 277 293 297 297 291 278 268 266 267 271 277 276 259 247 239 231 225 227 233 236 239 225 221 216 205 196 195 200 207 230 240 238 235 238 nan nan nan nan nan nan
281 284 286 287 290 292 295 296 301 299 301 300 299 300 303 307 308 308 306 302 299 299 298 299 299 301 302 300 300 300 302 302 299 295 291 285 277 275 269 269 267 265 261 261 264 265 280 293 293 290 279 266 262 263 265 266 264 252 244 238 229 220 220 224 225 224 224 225 222 210 197 188 192 199 228 235 235 nan nan nan nan nan nan nan nan
283 283 284 286 290 290 293 295 295 299 305 300 300 301 305 308 308 307 304 300 297 298 298 299 300 301 300 298 300 299 296 293 293 294 295 294 285 279 277 275 273 265 263 265 264 263 272 281 288 288 277 267 259 256 260 260 253 244 234 234 234 224 222 220 220 226 226 225 223 214 208 191 190 198 223 230 nan nan nan nan nan nan nan nan nan
282 283 283 285 289 290 291 297 298 297 303 301 302 303 307 308 308 307 304 301 300 299 299 297 298 298 295 293 294 296 291 292 292 293 297 298 290 281 278 279 275 267 261 264 266 263 262 272 283 287 276 267 258 255 253 243 235 230 225 218 218 231 227 220 219 226 227 223 225 220 214 199 195 203 220 227 228 nan nan nan nan nan nan nan nan
283 284 284 287 290 290 291 296 298 300 300 298 303 305 307 308 308 307 305 303 300 300 299 296 295 294 290 290 291 291 291 284 286 289 295 296 293 283 275 276 275 267 260 262 269 268 269 275 284 288 282 273 263 250 243 239 235 233 225 221 216 230 235 229 230 227 224 223 224 222 212 200 199 209 210 224 228 nan nan nan nan nan nan nan nan
284 284 286 289 290 291 287 292 295 296 295 294 304 304 306 307 307 306 304 301 299 298 296 294 292 289 285 286 290 292 291 287 285 288 292 298 295 288 271 266 273 270 263 260 264 264 267 278 286 287 281 274 258 245 241 236 233 230 222 218 220 229 240 230 228 228 225 224 220 219 214 204 202 204 210 217 221 224 226 nan nan nan nan nan nan
284 285 287 288 289 288 287 286 288 291 294 299 301 302 302 303 303 301 299 297 296 294 293 289 285 282 283 285 288 291 294 295 295 296 297 299 298 295 275 265 271 274 266 262 263 266 267 272 279 280 277 263 252 243 240 235 230 227 219 215 225 243 243 229 228 230 228 223 221 219 216 208 209 193 214 216 220 nan nan nan nan nan nan nan nan
284 286 286 286 287 286 285 282 282 287 293 303 305 297 299 299 297 293 293 295 292 288 286 285 285 284 285 286 287 292 296 295 295 300 307 306 301 298 280 266 269 274 270 266 265 266 266 266 268 272 269 260 253 246 239 236 229 223 218 218 225 258 241 222 227 230 230 226 223 221 216 215 211 211 213 216 221 nan nan nan nan nan nan nan nan
286 287 285 284 284 282 281 282 280 288 293 292 293 292 292 290 285 285 293 290 282 281 285 287 288 288 286 285 286 291 295 297 297 300 303 300 297 291 283 269 268 275 274 269 266 267 264 261 260 263 265 261 255 248 238 234 228 221 219 216 237 256 240 220 226 227 229 230 225 222 218 219 215 216 217 218 nan nan nan nan nan nan nan nan nan
290 289 285 282 280 280 278 279 283 286 290 287 286 289 284 280 283 291 283 265 265 283 288 285 285 282 282 281 285 290 292 293 293 295 297 294 288 286 281 275 271 274 277 275 268 265 264 262 259 257 257 258 255 248 236 229 227 222 222 224 246 255 245 224 224 224 229 232 228 225 222 224 223 223 223 224 227 nan nan nan nan nan nan nan nan
294 291 284 279 277 277 277 277 281 286 288 289 289 287 287 285 290 285 264 275 284 289 276 278 284 285 286 284 288 294 294 292 290 296 295 291 287 284 279 280 278 273 274 273 268 262 262 262 262 258 253 254 247 243 238 227 223 223 223 231 257 257 248 231 223 225 229 229 230 229 227 231 220 228 230 227 nan nan nan nan nan nan nan nan nan
292 293 286 280 277 275 274 277 281 284 285 284 285 285 286 286 282 276 277 286 287 274 270 278 280 284 280 282 288 296 295 292 295 295 297 290 285 286 283 285 285 277 271 270 267 260 259 259 260 261 255 248 242 238 234 227 222 222 221 235 262 267 239 223 226 226 228 228 228 230 236 231 235 234 232 233 nan nan nan nan nan nan nan nan nan
289 291 289 282 277 275 275 276 279 281 282 281 277 277 279 281 278 277 284 283 282 269 263 276 269 278 286 287 284 296 297 288 289 291 296 291 283 279 289 291 289 286 278 272 266 257 256 254 254 259 256 245 238 235 230 224 222 221 224 231 270 254 234 226 227 226 228 231 231 230 240 235 239 239 237 238 nan nan nan nan nan nan nan nan nan
289 287 287 284 278 276 278 279 278 279 277 274 274 272 271 279 279 275 277 287 280 274 286 287 282 281 282 287 291 291 293 287 286 288 294 291 290 283 282 287 290 289 281 272 268 256 252 254 250 248 248 243 232 228 229 224 218 219 226 230 239 236 238 228 224 226 229 230 230 234 238 239 243 245 244 242 243 nan nan nan nan nan nan nan nan
289 287 285 284 280 278 278 278 279 277 277 275 272 269 268 263 268 273 273 280 282 284 284 281 279 281 288 292 293 292 293 287 288 299 292 297 290 287 284 288 287 285 280 266 260 254 251 252 253 246 238 234 233 226 224 222 219 218 221 221 222 230 239 231 223 222 228 229 228 238 235 237 242 247 249 247 247 nan nan nan nan nan nan nan nan
293 288 284 280 279 278 278 278 278 275 274 270 266 265 258 257 256 259 261 269 272 276 276 269 279 284 288 288 291 295 296 285 295 297 288 290 283 274 259 270 273 274 272 268 257 247 250 253 257 253 236 222 225 nan nan nan 219 216 216 215 220 229 237 236 224 222 223 231 229 242 233 232 236 245 249 250 251 nan nan nan nan nan nan nan nan
296 290 283 280 278 277 277 280 278 272 269 266 262 257 254 254 253 257 259 259 267 270 275 277 282 284 288 287 293 293 296 291 293 290 290 286 283 281 278 267 260 263 270 261 258 248 239 242 247 245 238 227 222 219 nan nan 221 219 218 215 219 225 231 234 229 223 223 227 231 239 233 230 233 243 247 247 251 nan nan nan nan nan nan nan nan
297 293 287 280 277 276 277 277 275 267 263 257 255 255 255 250 250 254 263 267 268 269 272 277 281 284 284 287 291 290 291 295 292 289 288 284 285 283 277 268 260 257 261 258 255 244 234 234 238 238 239 232 222 215 215 nan nan 221 220 218 218 221 223 231 233 226 223 224 234 238 229 229 230 244 245 247 248 249 nan nan nan nan nan nan nan
299 294 287 278 274 274 275 274 268 259 256 251 250 248 248 247 249 254 259 263 264 269 275 279 281 284 287 287 288 288 290 291 290 289 289 285 286 284 280 271 263 257 256 254 253 246 234 233 235 231 233 235 227 217 214 nan 218 nan nan 222 219 220 222 226 232 230 225 225 233 240 230 231 229 243 247 250 251 250 nan nan nan nan nan nan nan
298 294 289 282 276 277 275 272 264 256 250 247 246 244 245 247 249 254 255 258 262 266 271 275 278 282 286 287 286 284 283 285 286 285 283 280 279 279 276 271 265 259 256 253 252 249 239 230 234 232 228 231 229 218 nan nan nan 220 nan 224 223 nan 221 223 227 229 228 226 228 239 228 233 234 234 249 249 253 251 nan nan nan nan nan nan nan
295 294 291 285 281 277 276 272 264 257 248 245 246 244 245 245 248 249 252 260 259 260 263 269 274 277 279 283 280 278 279 277 279 278 274 276 277 284 280 275 265 262 260 262 259 256 247 235 234 233 227 226 226 219 nan nan nan nan nan nan 224 223 222 223 225 228 228 227 226 235 235 230 231 232 240 248 252 252 254 252 nan nan nan nan nan
294 294 292 288 283 280 279 274 266 257 251 248 246 245 248 250 248 250 252 256 257 262 261 264 265 269 271 273 275 273 275 275 275 272 271 266 271 278 279 277 282 277 276 273 267 260 253 243 236 234 nan 224 nan 219 nan nan nan nan nan nan 226 224 225 223 225 226 227 227 226 229 237 224 227 228 225 239 250 253 255 251 nan nan nan nan nan
290 292 289 286 282 281 277 270 262 256 251 250 248 248 250 251 253 253 253 253 257 258 258 256 256 261 261 263 264 262 262 259 253 254 258 259 271 267 266 264 273 266 261 264 260 255 251 242 238 237 nan 232 nan 218 nan nan nan nan nan nan nan 225 226 226 223 224 223 225 226 227 234 233 226 226 228 229 235 249 254 254 256 nan nan nan nan
286 291 285 282 281 282 277 270 263 257 254 251 248 248 249 252 257 257 258 257 257 256 258 257 257 254 250 250 253 256 261 261 261 262 264 271 259 267 268 269 278 259 249 252 253 253 248 244 237 238 237 235 227 219 212 213 nan nan nan 225 226 226 228 228 226 227 223 223 225 229 230 235 239 231 231 231 234 236 254 256 258 255 nan nan nan
272 280 285 281 282 279 276 274 266 261 257 253 247 246 247 251 256 257 259 257 255 251 254 256 254 253 252 252 254 255 257 263 266 264 269 277 287 285 281 283 278 273 265 260 258 256 252 250 247 244 244 241 234 226 217 213 214 218 221 224 225 225 227 229 230 230 228 226 227 229 232 236 238 251 240 236 236 235 241 255 257 256 256 nan nan
273 269 277 280 276 268 268 265 264 259 253 247 244 245 248 249 253 256 256 259 260 263 261 258 256 255 251 245 249 252 252 258 261 269 275 274 264 266 274 274 273 272 266 256 258 256 258 258 255 252 250 245 241 235 223 217 216 217 221 224 224 224 226 227 229 231 232 230 229 230 233 235 238 237 245 252 241 240 242 244 253 254 255 nan nan
269 269 282 279 274 272 266 261 262 258 253 249 248 248 249 250 253 257 259 261 263 263 263 262 258 256 257 262 258 262 264 261 262 264 266 267 263 260 266 274 271 264 262 261 266 266 265 265 261 258 255 248 243 240 231 222 217 217 217 220 224 226 229 228 229 230 233 234 232 230 230 233 235 237 240 242 252 248 245 247 247 253 254 251 254
276 274 275 274 272 271 270 267 265 262 255 252 252 252 253 253 253 255 259 263 264 264 263 262 261 259 258 259 259 259 261 264 266 264 264 263 261 262 267 266 270 276 276 281 277 269 265 263 263 262 259 253 245 244 240 232 223 220 218 218 220 224 227 231 232 232 233 235 234 234 232 231 234 235 238 238 240 247 256 249 248 249 252 253 253
274 278 278 277 273 267 265 268 268 265 259 255 253 253 255 256 255 256 257 261 263 263 262 260 260 259 258 259 260 260 259 261 260 263 267 268 268 267 267 267 263 268 277 273 270 255 257 264 265 264 258 253 246 240 239 238 232 224 220 217 216 220 224 228 233 235 237 235 236 236 234 233 235 237 237 237 239 240 256 253 251 251 249 254 254
273 277 278 277 273 267 261 259 256 255 254 255 255 255 nan nan 259 nan nan nan 261 263 263 262 260 258 258 259 259 259 260 260 260 260 262 268 269 270 267 265 268 268 270 272 275 272 262 263 264 262 260 254 248 243 240 238 236 231 226 220 216 216 219 223 229 234 234 235 236 236 236 235 235 237 237 238 238 242 245 258 254 247 249 253 260
nan nan 273 269 270 265 256 251 252 254 nan nan nan nan nan nan nan nan nan nan 261 260 260 260 258 259 258 260 260 259 259 259 260 261 264 266 267 269 268 266 266 268 265 265 264 263 260 256 257 259 263 259 251 244 243 242 236 230 228 224 222 220 219 220 224 230 233 233 232 234 237 238 237 238 239 239 239 241 245 245 250 247 248 264 261
nan nan nan nan 275 271 267 261 257 nan nan nan nan nan nan 260 261 nan nan nan 261 262 260 259 258 258 259 262 262 262 262 261 261 263 265 266 267 268 270 268 263 261 263 262 259 262 265 265 263 262 267 265 256 244 243 244 239 230 227 225 226 227 224 nan nan 224 229 232 233 233 234 237 238 238 240 239 239 241 243 246 246 246 242 259 270
nan nan nan nan 279 279 279 278 nan nan nan nan nan nan nan nan 258 259 260 261 262 262 261 260 nan nan nan nan nan nan nan nan nan 264 266 267 266 265 266 266 263 261 259 260 259 252 251 257 260 259 261 267 259 251 245 245 242 231 225 224 226 232 235 230 nan 223 227 229 232 232 233 235 237 239 239 241 242 242 243 246 247 247 247 242 255
nan nan nan nan nan 280 284 280 nan nan nan 275 nan 266 264 265 264 263 262 nan nan 265 264 nan nan nan nan nan nan nan nan nan nan 265 266 266 268 nan 267 266 264 261 258 257 257 254 254 254 256 255 254 263 263 260 257 253 244 233 229 228 230 231 237 236 228 223 224 228 230 232 233 233 235 237 240 242 243 245 245 246 247 249 250 249 248
nan nan nan nan nan nan 281 nan 281 nan nan nan nan nan nan nan 263 nan 264 nan nan nan nan nan nan nan nan nan nan nan nan nan 263 265 266 266 267 267 266 264 260 nan nan nan nan 252 251 254 256 258 259 256 254 257 264 260 249 243 234 238 236 234 232 233 231 223 219 222 226 229 232 233 233 236 240 242 243 245 246 247 248 250 252 252 251
nan nan nan nan nan nan nan nan nan nan nan nan nan nan nan nan nan nan nan nan nan nan nan nan nan nan nan nan nan nan nan nan nan nan nan nan nan nan nan nan nan nan nan nan nan nan nan 247 251 256 261 262 259 257 254 259 254 257 243 238 243 245 nan 229 229 222 219 222 223 227 232 234 236 239 241 243 244 246 246 247 248 249 250 252 253
nan nan nan nan nan nan nan nan nan nan nan nan nan nan nan nan nan nan nan nan nan nan nan nan nan nan nan nan nan nan nan nan nan nan nan nan nan nan nan nan nan nan nan nan nan nan nan nan nan 253 254 257 260 257 252 253 261 245 243 242 240 240 238 237 230 226 225 225 nan nan nan 234 237 239 241 242 245 248 250 251 251 250 252 253 255
nan nan nan nan nan nan nan nan nan nan nan nan nan nan nan nan nan nan nan nan nan nan nan nan nan nan nan nan nan nan nan nan nan nan nan nan nan nan nan nan nan nan nan nan nan nan nan nan nan nan nan nan nan 255 255 nan 251 245 239 236 234 227 230 236 235 232 231 229 228 nan 229 233 236 nan 239 240 243 245 249 251 254 254 254 254 255
nan nan nan nan nan nan nan nan nan nan nan nan nan nan nan nan nan nan nan nan nan nan nan nan nan nan nan nan nan nan nan nan nan nan nan nan nan nan nan nan nan nan nan nan nan nan nan nan nan nan nan nan nan nan nan nan nan nan nan nan 242 236 227 228 229 231 230 233 233 230 230 nan nan 235 nan 239 242 244 246 248 251 253 255 257 257
nan nan nan nan nan nan nan nan nan nan nan nan nan nan nan 285 nan nan nan nan nan nan nan nan nan nan nan nan nan nan nan nan nan nan nan nan nan nan nan nan nan nan nan nan nan nan nan nan nan nan nan nan nan nan nan nan nan nan nan nan nan nan 240 235 229 227 229 228 231 234 nan nan nan nan nan nan 240 242 244 246 249 253 255 258 260
nan nan nan nan nan nan nan nan nan nan nan nan nan nan 288 287 nan nan nan nan nan nan nan nan nan nan nan nan nan nan nan nan nan nan nan nan nan nan nan nan nan nan nan nan nan nan nan nan nan nan nan nan nan nan nan nan nan nan nan nan nan nan nan 248 nan nan nan 235 232 228 228 234 238 nan nan 236 237 240 242 244 244 nan 249 253 257
nan nan nan nan nan nan nan nan nan nan nan nan nan nan nan nan nan nan nan nan nan nan nan nan nan nan nan nan nan nan nan nan nan nan nan nan nan nan nan nan nan nan nan nan nan nan nan nan nan nan nan nan nan nan nan nan nan nan nan nan nan nan nan nan nan nan nan nan nan nan nan nan nan 241 nan 237 nan nan nan 243 246 nan nan 249 252
nan nan nan nan nan nan nan nan nan nan nan nan nan nan nan nan nan nan nan nan nan nan nan nan nan nan nan nan nan nan nan nan nan nan nan nan nan nan nan nan nan nan nan nan nan nan nan nan nan nan nan nan nan nan nan nan nan nan nan nan nan nan nan nan nan nan nan nan nan nan nan nan nan nan nan nan nan nan nan 244 245 248 249 249 249